Location: Jackson
(42.2460°N, 84.4010°W)
Time: 15:20:38
(UTC-05:00)

BlueWalker 3 - Visible Passes

Search period start: 18 January 2026 00:00
Search period end: 28 January 2026 00:00
Orbit: 451 x 463 km, 53.2° (Epoch: 18 January)

Date Brightness Start Highest point End Pass type
(mag) Time Alt. Az. Time Alt. Az. Time Alt. Az.
18 Jan 4.1 18:47:10 10° SE 18:47:52 11° SE 18:47:52 11° SE visible
18 Jan 4.8 20:21:22 10° SW 20:21:39 12° SW 20:21:39 12° SW visible
19 Jan 3.1 19:46:04 10° SW 19:48:12 34° SSW 19:48:12 34° SSW visible
20 Jan 1.9 19:10:47 10° SSW 19:14:15 50° SE 19:14:39 46° ESE visible
21 Jan 2.5 18:35:37 10° SSW 18:38:55 37° SE 18:41:01 19° ENE visible
21 Jan 4.2 20:13:10 10° W 20:14:47 22° WNW 20:14:47 22° WNW visible
22 Jan 2.7 19:37:35 10° W 19:40:58 39° NNW 19:41:03 39° NNW visible
23 Jan 2.4 19:02:03 10° WSW 19:05:31 49° NNW 19:07:15 25° NNE visible
24 Jan 2.0 18:26:32 10° WSW 18:30:04 63° NW 18:33:23 11° NE visible
24 Jan 4.3 20:05:33 10° WNW 20:07:08 16° NW 20:07:08 16° NW visible
25 Jan 3.7 19:29:49 10° WNW 19:32:32 20° NNW 19:33:12 19° N visible
26 Jan 3.6 18:54:06 10° WNW 18:56:59 23° NNW 18:59:13 13° NNE visible
27 Jan 3.4 18:18:22 10° W 18:21:26 26° NNW 18:24:29 10° NE visible
27 Jan 4.4 19:57:51 10° NW 19:58:56 13° NNW 19:58:56 13° NNW visible
